GFSNIL_prec_precacc12_132.txt.gz
Total_Precipitation_Accumulation
0.05 0.03 0.02 0.01 0.00 0.00 0.00 0.00 0.01 0.00 0.01 0.01 0.01 0.00 0.01 0.00 0.00 0.00 0.01 0.00 0.00 0.00
0.04 0.04 0.02 0.04 0.05 0.01 0.01 0.00 0.01 0.01 0.01 0.01 0.01 0.00 0.01 0.00 0.01 0.01 0.01 0.00 0.00 0.00
0.01 0.01 0.02 0.09 0.10 0.03 0.10 0.07 0.09 0.05 0.08 0.04 0.04 0.05 0.03 0.01 0.00 0.02 0.01 0.00 0.01 0.01
0.00 0.00 0.00 0.04 0.09 0.13 0.16 0.12 0.14 0.07 0.16 0.18 0.13 0.13 0.16 0.07 0.08 0.09 0.07 0.03 0.03 0.02
0.00 0.00 0.00 0.00 0.03 0.13 0.25 0.19 0.16 0.23 0.28 0.26 0.23 0.28 0.16 0.19 0.23 0.17 0.14 0.09 0.12 0.12
0.01 0.00 0.01 0.02 0.02 0.08 0.17 0.12 0.13 0.29 0.32 0.32 0.31 0.28 0.22 0.20 0.19 0.20 0.19 0.13 0.16 0.09
0.02 0.02 0.00 0.02 0.05 0.08 0.07 0.06 0.09 0.10 0.14 0.16 0.13 0.15 0.18 0.17 0.19 0.20 0.15 0.31 0.26 0.18
0.05 0.04 0.09 0.10 0.11 0.12 0.08 0.09 0.07 0.04 0.05 0.05 0.04 0.03 0.05 0.09 0.09 0.12 0.12 0.17 0.12 0.11
0.21 0.17 0.10 0.09 0.13 0.15 0.17 0.23 0.18 0.10 0.11 0.09 0.06 0.02 0.03 0.05 0.04 0.03 0.05 0.05 0.06 0.11
0.32 0.24 0.17 0.17 0.27 0.25 0.30 0.33 0.32 0.31 0.33 0.22 0.14 0.20 0.12 0.07 0.02 0.02 0.06 0.12 0.24 0.30
0.53 0.49 0.49 0.41 0.37 0.34 0.35 0.43 0.43 0.34 0.26 0.23 0.15 0.16 0.06 0.04 0.01 0.01 0.10 0.16 0.12 0.18
0.84 0.61 0.52 0.47 0.49 0.47 0.49 0.44 0.26 0.19 0.21 0.16 0.11 0.13 0.05 0.03 0.03 0.03 0.05 0.01 0.00 0.02
1.99 1.03 0.59 0.47 0.64 0.59 0.59 0.55 0.36 0.28 0.20 0.18 0.12 0.16 0.12 0.07 0.02 0.06 0.10 0.07 0.03 0.08
1.17 1.16 0.85 1.18 1.06 0.76 0.70 0.72 0.75 0.70 0.59 0.53 0.43 0.37 0.35 0.19 0.09 0.12 0.19 0.21 0.08 0.02

GFSNIL_prec_precacc12_138.txt.gz
Total_Precipitation_Accumulation
0.00 0.01 0.01 0.01 0.00 0.00 0.00 0.00 0.00 0.01 0.05 0.05 0.04 0.03 0.04 0.03 0.00 0.00 0.00 0.00 0.00 0.00
0.00 0.01 0.01 0.02 0.00 0.00 0.00 0.00 0.00 0.00 0.00 0.03 0.06 0.01 0.01 0.00 0.00 0.00 0.00 0.00 0.00 0.00
0.00 0.00 0.00 0.00 0.00 0.00 0.00 0.01 0.01 0.02 0.05 0.02 0.03 0.04 0.01 0.00 0.00 0.00 0.00 0.00 0.00 0.00
0.00 0.00 0.00 0.00 0.00 0.00 0.01 0.00 0.01 0.01 0.08 0.10 0.09 0.07 0.02 0.01 0.02 0.01 0.01 0.03 0.01 0.00
0.00 0.00 0.00 0.00 0.00 0.00 0.02 0.02 0.04 0.08 0.15 0.21 0.15 0.15 0.05 0.10 0.17 0.09 0.04 0.07 0.06 0.09
0.00 0.00 0.00 0.00 0.00 0.01 0.02 0.01 0.02 0.01 0.01 0.04 0.09 0.07 0.05 0.10 0.13 0.10 0.06 0.09 0.04 0.09
0.04 0.00 0.00 0.00 0.01 0.02 0.00 0.00 0.03 0.04 0.02 0.01 0.08 0.03 0.04 0.03 0.17 0.14 0.07 0.13 0.22 0.19
0.18 0.08 0.04 0.03 0.05 0.06 0.05 0.07 0.09 0.09 0.05 0.09 0.02 0.00 0.00 0.01 0.09 0.20 0.15 0.19 0.19 0.14
0.29 0.24 0.18 0.10 0.04 0.06 0.08 0.14 0.13 0.08 0.09 0.08 0.02 0.05 0.00 0.01 0.06 0.11 0.11 0.06 0.02 0.04
0.42 0.36 0.24 0.23 0.24 0.11 0.16 0.21 0.21 0.22 0.19 0.08 0.08 0.19 0.18 0.14 0.07 0.03 0.01 0.03 0.11 0.14
0.65 0.57 0.50 0.42 0.34 0.29 0.35 0.39 0.37 0.28 0.17 0.15 0.09 0.20 0.18 0.13 0.06 0.02 0.03 0.04 0.04 0.03
0.76 0.62 0.56 0.49 0.44 0.37 0.37 0.39 0.27 0.23 0.26 0.23 0.15 0.22 0.21 0.17 0.12 0.11 0.11 0.09 0.04 0.02
1.69 0.96 0.62 0.46 0.41 0.33 0.33 0.28 0.22 0.20 0.16 0.17 0.15 0.20 0.26 0.23 0.16 0.17 0.15 0.10 0.06 0.11
0.83 1.14 1.06 1.11 0.86 0.45 0.33 0.28 0.24 0.18 0.13 0.12 0.14 0.26 0.34 0.21 0.11 0.08 0.07 0.08 0.06 0.03

GFSNIL_prec_precacc12_141.txt.gz
Total_Precipitation_Accumulation
0.00 0.00 0.00 0.01 0.00 0.00 0.00 0.00 0.00 0.01 0.04 0.05 0.04 0.03 0.04 0.05 0.03 0.00 0.02 0.01 0.00 0.00
0.00 0.00 0.00 0.01 0.00 0.00 0.00 0.00 0.00 0.00 0.00 0.03 0.05 0.02 0.01 0.01 0.03 0.01 0.00 0.00 0.00 0.00
0.00 0.00 0.00 0.00 0.00 0.00 0.00 0.00 0.00 0.02 0.03 0.01 0.02 0.04 0.01 0.00 0.01 0.01 0.01 0.00 0.00 0.00
0.00 0.00 0.00 0.00 0.00 0.00 0.00 0.00 0.00 0.01 0.04 0.05 0.06 0.07 0.03 0.01 0.03 0.02 0.02 0.04 0.02 0.01
0.00 0.00 0.00 0.00 0.00 0.00 0.02 0.01 0.00 0.03 0.08 0.10 0.09 0.17 0.08 0.04 0.07 0.03 0.01 0.05 0.06 0.08
0.00 0.00 0.00 0.00 0.00 0.00 0.01 0.01 0.01 0.01 0.00 0.04 0.09 0.09 0.06 0.10 0.12 0.05 0.05 0.09 0.08 0.17
0.04 0.00 0.00 0.00 0.01 0.01 0.00 0.00 0.02 0.04 0.03 0.02 0.13 0.07 0.09 0.05 0.21 0.17 0.07 0.14 0.32 0.39
0.18 0.08 0.02 0.01 0.04 0.05 0.05 0.07 0.09 0.12 0.08 0.12 0.06 0.06 0.05 0.08 0.16 0.29 0.21 0.27 0.39 0.25
0.28 0.24 0.18 0.09 0.04 0.05 0.08 0.13 0.12 0.08 0.09 0.14 0.07 0.12 0.04 0.07 0.12 0.18 0.18 0.20 0.15 0.08
0.38 0.32 0.23 0.21 0.21 0.08 0.12 0.16 0.14 0.17 0.12 0.06 0.10 0.18 0.22 0.19 0.15 0.13 0.09 0.07 0.04 0.02
0.51 0.44 0.37 0.31 0.24 0.20 0.23 0.21 0.21 0.17 0.10 0.12 0.10 0.20 0.23 0.23 0.14 0.08 0.05 0.03 0.03 0.02
0.41 0.34 0.36 0.31 0.26 0.22 0.22 0.20 0.16 0.16 0.19 0.21 0.15 0.22 0.29 0.27 0.18 0.17 0.16 0.12 0.07 0.04
1.46 0.67 0.38 0.31 0.30 0.27 0.28 0.28 0.22 0.22 0.20 0.19 0.15 0.20 0.27 0.26 0.23 0.25 0.19 0.10 0.07 0.10
0.76 0.95 0.77 0.84 0.75 0.43 0.34 0.31 0.25 0.20 0.19 0.16 0.14 0.13 0.17 0.17 0.15 0.11 0.08 0.07 0.04 0.02

GFSNIL_prec_precacc12_144.txt.gz
Total_Precipitation_Accumulation
0.00 0.00 0.00 0.01 0.00 0.02 0.00 0.00 0.00 0.01 0.05 0.08 0.07 0.05 0.05 0.10 0.05 0.02 0.05 0.03 0.01 0.00
0.00 0.00 0.00 0.01 0.00 0.00 0.00 0.00 0.00 0.00 0.00 0.04 0.07 0.05 0.03 0.01 0.04 0.01 0.01 0.00 0.00 0.00
0.00 0.00 0.00 0.00 0.00 0.00 0.00 0.00 0.01 0.01 0.02 0.01 0.04 0.06 0.06 0.00 0.01 0.03 0.01 0.00 0.00 0.01
0.00 0.00 0.00 0.00 0.00 0.00 0.00 0.00 0.01 0.01 0.08 0.05 0.07 0.11 0.09 0.03 0.04 0.05 0.04 0.03 0.02 0.03
0.00 0.00 0.00 0.00 0.00 0.00 0.01 0.00 0.00 0.04 0.09 0.13 0.08 0.23 0.12 0.06 0.08 0.09 0.07 0.12 0.10 0.09
0.00 0.00 0.00 0.00 0.00 0.00 0.01 0.01 0.01 0.01 0.01 0.08 0.13 0.16 0.08 0.15 0.14 0.06 0.08 0.12 0.15 0.25
0.04 0.00 0.00 0.00 0.00 0.00 0.00 0.00 0.00 0.03 0.03 0.03 0.15 0.08 0.10 0.07 0.22 0.18 0.09 0.23 0.39 0.42
0.14 0.07 0.02 0.00 0.00 0.00 0.00 0.00 0.04 0.11 0.06 0.11 0.06 0.06 0.06 0.09 0.19 0.34 0.25 0.30 0.51 0.31
0.18 0.17 0.16 0.08 0.02 0.02 0.01 0.01 0.05 0.07 0.07 0.14 0.07 0.12 0.05 0.09 0.14 0.24 0.24 0.25 0.24 0.09
0.25 0.23 0.16 0.15 0.16 0.07 0.06 0.08 0.08 0.09 0.08 0.05 0.05 0.07 0.15 0.15 0.17 0.18 0.17 0.13 0.10 0.04
0.31 0.29 0.23 0.20 0.16 0.13 0.15 0.13 0.14 0.14 0.09 0.09 0.07 0.15 0.20 0.22 0.20 0.12 0.10 0.08 0.08 0.04
0.12 0.13 0.15 0.17 0.17 0.14 0.14 0.13 0.13 0.11 0.11 0.12 0.09 0.20 0.31 0.27 0.21 0.20 0.18 0.13 0.10 0.07
0.06 0.16 0.14 0.13 0.15 0.14 0.16 0.16 0.13 0.17 0.20 0.21 0.19 0.23 0.31 0.29 0.24 0.25 0.17 0.09 0.07 0.07
0.02 0.25 0.44 0.27 0.26 0.21 0.23 0.27 0.23 0.18 0.16 0.20 0.19 0.18 0.19 0.17 0.16 0.10 0.08 0.07 0.06 0.03

GFSNIL_prec_precacc12_147.txt.gz
Total_Precipitation_Accumulation
0.00 0.00 0.00 0.00 0.00 0.02 0.00 0.00 0.01 0.01 0.03 0.05 0.05 0.07 0.11 0.14 0.05 0.02 0.06 0.03 0.01 0.00
0.00 0.00 0.00 0.00 0.00 0.00 0.00 0.00 0.00 0.00 0.00 0.01 0.03 0.04 0.06 0.02 0.04 0.02 0.03 0.00 0.00 0.00
0.00 0.00 0.00 0.00 0.00 0.00 0.00 0.00 0.01 0.00 0.00 0.01 0.02 0.04 0.06 0.00 0.01 0.03 0.01 0.00 0.00 0.01
0.00 0.00 0.00 0.00 0.00 0.00 0.00 0.00 0.01 0.02 0.09 0.04 0.03 0.11 0.13 0.05 0.04 0.10 0.07 0.04 0.03 0.04
0.00 0.00 0.00 0.00 0.00 0.00 0.01 0.00 0.00 0.04 0.11 0.05 0.03 0.17 0.12 0.07 0.07 0.09 0.09 0.15 0.17 0.14
0.00 0.00 0.00 0.00 0.00 0.01 0.05 0.03 0.00 0.00 0.03 0.08 0.09 0.17 0.08 0.14 0.12 0.06 0.09 0.13 0.21 0.31
0.03 0.00 0.00 0.00 0.00 0.00 0.09 0.07 0.04 0.01 0.01 0.03 0.08 0.08 0.08 0.07 0.16 0.15 0.08 0.23 0.43 0.47
0.05 0.04 0.02 0.03 0.04 0.04 0.06 0.05 0.06 0.11 0.07 0.06 0.05 0.07 0.06 0.09 0.17 0.30 0.24 0.33 0.59 0.38
0.08 0.14 0.15 0.11 0.04 0.05 0.04 0.03 0.04 0.04 0.04 0.08 0.05 0.09 0.05 0.08 0.10 0.19 0.24 0.30 0.32 0.16
0.10 0.16 0.21 0.20 0.17 0.09 0.07 0.05 0.05 0.04 0.05 0.04 0.05 0.05 0.11 0.13 0.16 0.16 0.17 0.17 0.16 0.12
0.07 0.16 0.16 0.16 0.15 0.12 0.14 0.11 0.11 0.09 0.07 0.09 0.05 0.06 0.14 0.19 0.18 0.11 0.11 0.12 0.14 0.13
0.05 0.09 0.12 0.13 0.13 0.10 0.12 0.10 0.11 0.15 0.17 0.15 0.09 0.11 0.21 0.19 0.13 0.18 0.20 0.17 0.13 0.11
0.04 0.11 0.09 0.05 0.07 0.07 0.08 0.09 0.10 0.16 0.19 0.18 0.17 0.23 0.32 0.28 0.20 0.26 0.19 0.11 0.08 0.08
0.00 0.02 0.07 0.15 0.13 0.05 0.08 0.15 0.19 0.19 0.18 0.21 0.19 0.23 0.32 0.34 0.25 0.15 0.09 0.06 0.05 0.04